189  
ASUS41 KBOX 072005  
RWRBOX  
 
REGIONAL WEATHER ROUNDUP  
NATIONAL WEATHER SERVICE BOSTON/NORTON MA  
400 PM EDT TUE JUL 07 2020  
 
NOTE: "FAIR" INDICATES FEW OR NO CLOUDS BELOW 12,000 FEET WITH NO  
SIGNIFICANT WEATHER AND/OR S TO VISIBILITY
.  
 
MAZALL-072100-  
EASTERN MASSACHUSETTS  
 
CITY SKY/WX TMP DP RH WIND PRES REMARKS
 
BOSTON PTSUNNY 79 52 38 S14 30.12F  
BEVERLY MOSUNNY 73 60 63 SE12 30.12F  
LAWRENCE MOSUNNY 77 61 57 SE8G18 30.12F  
BEDFORD MOSUNNY 81 56 42 S17G24 30.10F  
BLUE HILL N/A 76 52 43 S16G25 30.13F  
NORWOOD PTSUNNY 77 53 43 S10G20 30.13S  
MARSHFIELD PTSUNNY 77 52 41 S12G21 30.14F  
PLYMOUTH PTSUNNY 73 53 49 S10 30.16S  
TAUNTON PTSUNNY 77 54 44 SE10 30.15S  
NEW BEDFORD PTSUNNY 72 57 59 SE12 30.16S  

 
 
MAZALL-072100-  
CAPE COD AND THE ISLANDS  
 
CITY SKY/WX TMP DP RH WIND PRES REMARKS
 
FALMOUTH SUNNY 70 55 60 S15G22 30.17F  
HYANNIS MOSUNNY 67 58 72 S9 30.16F  
CHATHAM MOSUNNY 63 54 72 S12G18 30.20S  
PROVINCETOWN MOSUNNY 70 57 63 S12G20 30.18S  
NANTUCKET MOSUNNY 62 56 80 SE14 30.18F  
MARTHAS VNYRD PTSUNNY 65 59 81 S13 30.18S  

 
 
MAZALL-072100-  
CENTRAL AND WESTERN MASSACHUSETTS  
 
CITY SKY/WX TMP DP RH WIND PRES REMARKS
 
WORCESTER PTSUNNY 76 62 62 S15 30.14S  
FITCHBURG CLOUDY 82 61 48 S12 30.10F  
ORANGE PTSUNNY 78 63 59 S18G25 30.12S  
SPRINGFIELD CLOUDY 75 64 67 S8 30.10F  
WESTFIELD CLOUDY 75 65 70 S9 30.11F  
NORTH ADAMS CLOUDY 78 65 63 S3 30.09S  
PITTSFIELD CLOUDY 76 65 68 S8 30.10F  

 
 
RIZALL-072100-  
RHODE ISLAND  
 
CITY SKY/WX TMP DP RH WIND PRES REMARKS
 
PROVIDENCE PTSUNNY 71 61 70 S14 30.16S  
NEWPORT PTSUNNY 66 59 78 SE9 30.17S  
BLOCK ISLAND PTSUNNY 68 62 81 SE10 30.16F  
SMITHFIELD PTSUNNY 73 63 70 VRB7 30.15F  
WESTERLY CLOUDY 71 61 70 SE7 30.16F  

 
 
CTZALL-072100-  
CONNECTICUT  
 
CITY SKY/WX TMP DP RH WIND PRES REMARKS
 
BRADLEY INTL CLOUDY 75 64 68 S12 30.11F  
HARTFORD CLOUDY 75 65 70 S10 30.11F  
BRIDGEPORT CLOUDY 72 67 84 E13 30.12F  
DANBURY CLOUDY 70 66 87 SE8 30.14S  
GROTON CLOUDY 67 61 81 SE9 30.15F  
NEW HAVEN CLOUDY 71 66 84 SE12 30.13F  
CHESTER NOT AVBL  
MERIDEN CLOUDY 71 64 78 S6 30.13F  
WILLIMANTIC CLOUDY 71 64 78 S8 30.14F  
OXFORD CLOUDY 68 66 93 SE10 30.14F FOG  

 
 
MEZ002-015-021-024-NHZ003-005-008-011-012-014-VTZ005-008-072100-  
NORTHERN NEW ENGLAND  
 
CITY SKY/WX TMP DP RH WIND PRES REMARKS
 
PORTLAND ME MOSUNNY 71 58 63 S12G18 30.15R  
BANGOR ME PTSUNNY 75 60 59 S16G22 30.12S  
CONCORD NH SUNNY 84 60 44 SE7 30.09S  
MANCHESTER NH PTSUNNY 84 54 35 S12 30.08S  
NASHUA NH SUNNY 82 60 47 SE9 30.10F  
PORTSMOUTH NH PTSUNNY 72 58 60 S14 30.11F  
JAFFREY NH PTSUNNY 79 62 56 S12G17 30.12S  
KEENE NH CLOUDY 78 64 61 SW8 30.11R  
BURLINGTON VT MOSUNNY 89 65 44 S17 29.98S HX 91  
MT. WASHINGTON FOG 57 52 82 SW9 N/A VSB 1/4  

 
 
NYZ052-076-072100-  
EASTERN NEW YORK  
 
CITY SKY/WX TMP DP RH WIND PRES REMARKS
 
ALBANY PTSUNNY 85 65 51 SE14G25 30.04F  
NEW YORK CITY PTSUNNY 76 67 73 NE12 30.07F  

 
 
ANZALL-072100-  
MARINE OBSERVATIONS  
 
STATION/POSITION TIME TEMP WIND PRES VSBY WAVE
 
AIR SEA DIR/SP/G HT/PER  
(UTC) (F) (DEG/KT/KT) (MB) (MI) (FT/S)  
BOSTON BUOY NOT AVBL  
BUZZARDS BAY 1900 150/ 9/ 11 1022.9F  
NANTUCKET SOUND NOT AVBL  
MASS BAY-STELLWA 1904 64 170/ 16/ 17 1018.3F 1 7/8 4/ 4  
ISLE OF SHOALS 1900 63 150/ 22/ 23 1019.7F  
S OF BLOCK IS 1926 67 N/A 2/ 8  

 
   
.....................KEY......................
 
 
SKY/WX - SKY CONDITION/PRESENT WEATHER  
TMP - TEMPERATURE IN FAHRENHEIT  
DWPT - DEWPOINT IN FAHRENHEIT  
RH - RELATIVE HUMIDITY IN PERCENT  
WIND - DIRECTION AND SPEED IN MPH  
PRES - MEAN SEA LEVEL PRESSURE IN INCHES OF HG  
WCI - WIND CHILL INDEX  
VSB - VISIBILITY IN MILES  
HX - HEAT INDEX  
TC - TEMPERATURE IN CELSIUS  
VRB - VARIABLE WIND DIRECTION  
N/A - NOT AVAILABLE  
 
 
CLICK HERE TO GO TO PREVIOUS BULLETINS.

The Nexlab MA Page
The Nexlab RI Page
The Nexlab NH Page
The Nexlab CT Page Main Text Page